This is the latest recevied weather packets stored in our database for station/object WX1NWA. If no packets are shown the sender has not sent any weather packets the latest 10 day(s).
| Time | Temp. | Humidity | Pressure | Rain* | Wind** | Luminosity | Snow |
|---|---|---|---|---|---|---|---|
| 1777660747 | 16.67° C | 41% | 1020.7 hPa | 0 mm | - | 474 W/m² | - |
| 1777660445 | 18.89° C | 44% | 1020.6 hPa | 0 mm | - | 436 W/m² | - |
| 1777660141 | 17.22° C | 44% | 1020.9 hPa | 0 mm | - | 724 W/m² | - |
| 1777659838 | 17.22° C | 48% | 1020.9 hPa | 0 mm | - | 716 W/m² | - |
| 1777659534 | 16.67° C | 45% | 1021.3 hPa | 0 mm | - | 676 W/m² | - |
| 1777659232 | 17.78° C | 44% | 1020.8 hPa | 0 mm | - | 523 W/m² | - |
| 1777658929 | 16.67° C | 45% | 1021 hPa | 0 mm | - | 751 W/m² | - |
| 1777658625 | 17.22° C | 42% | 1021.1 hPa | 0 mm | - | 763 W/m² | - |
| 1777658322 | 16.67° C | 52% | 1021.2 hPa | 0 mm | - | 751 W/m² | - |
| 1777658019 | 16.67° C | 47% | 1021.4 hPa | 0 mm | - | 627 W/m² | - |
| 1777657716 | 16.67° C | 44% | 1021.3 hPa | 0 mm | - | 705 W/m² | - |
| 1777657413 | 16.11° C | 51% | 1021.4 hPa | 0 mm | - | 401 W/m² | - |
| 1777657111 | 16.67° C | 51% | 1021.6 hPa | 0 mm | - | 730 W/m² | - |
| 1777656808 | 15.56° C | 53% | 1021.5 hPa | 0 mm | - | 696 W/m² | - |
| 1777656503 | 16.11° C | 52% | 1021.6 hPa | 0 mm | - | 635 W/m² | - |
| 1777656199 | 17.22° C | 52% | 1021.6 hPa | 0 mm | - | 676 W/m² | - |
| 1777655895 | 16.67° C | 49% | 1021.5 hPa | 0 mm | - | 753 W/m² | - |
| 1777655600 | 16.11° C | 52% | 1021.5 hPa | 0 mm | - | 744 W/m² | - |
| 1777655288 | 15° C | 56% | 1021.5 hPa | 0 mm | - | 750 W/m² | - |
| 1777654986 | 16.11° C | 55% | 1021.5 hPa | 0 mm | - | 760 W/m² | - |
| 1777654683 | 16.11° C | 53% | 1021.6 hPa | 0 mm | - | 764 W/m² | - |
| 1777654381 | 15.56° C | 57% | 1021.5 hPa | 0 mm | - | 756 W/m² | - |
| 1777654078 | 15.56° C | 58% | 1021.5 hPa | 0 mm | - | 769 W/m² | - |
| 1777653775 | 15.56° C | 55% | 1021.2 hPa | 0 mm | - | 777 W/m² | - |
| 1777653471 | 16.67° C | 57% | 1021.6 hPa | 0 mm | - | 791 W/m² | - |
* Rain latest hour (hover to see other rain measurements)
** Current wind speed in m/s (hover to see current wind gust speed)